Weather Roundup
Issued by NWS

Home | Current Version | Previous Version | Graphics & Text | Print | Product List | Glossary Off
Versions: 1 2 3 4 5 6 7 8 9 10 11 12 13 14 15 16 17 18 19 20 21 22 23 24 25 26 27 28 29 30 31 32 33 34 35 36 37 38 39 40 41 42 43 44 45 46 47 48 49 50

000
NZUS93 KARX 251259
HRRWXR

CURRENT HOURLY OBSERVATIONS ACROSS
MUCH OF THE UPPER MISSISSIPPI VALLEY
NATIONAL WEATHER SERVICE LA CROSSE WI
800 AM CDT TUE JUL 25 2017


...SOUTHEAST MINNESOTA...


CITY           SKY/WX    TMP DP  RH WIND       PRES   REMARKS
ROCHESTER      LGT RAIN  62  60  93 S14       30.10F
ROCHESTER/MAYO PTSUNNY   63  61  93 E6        30.13R
WINONA         CLOUDY    66  59  77 SE8       30.11F
AUSTIN         CLOUDY    63  61  94 SE8       30.08S THUNDER
ALBERT LEA     CLOUDY    66  63  88 S14G21    30.05F THUNDER
DODGE CENTER   RAIN      63  61  94 E8        30.10F
PRESTON        CLOUDY    62  58  86 SE8       30.13S THUNDER
OWATONNA       CLOUDY    64  61  88 E13       30.07S
FARIBAULT      CLOUDY    63  63 100 SE21G32   30.06S
$$

...ELSEWHERE IN MINNESOTA...


CITY           SKY/WX    TMP DP  RH WIND       PRES   REMARKS
MINNEAPOLIS    CLOUDY    68  62  81 SE8       30.03F
INTNL FALLS    CLOUDY    64  59  83 VRB6      29.96R
DULUTH         CLOUDY    63  60  90 SE12      30.04S
RED WING       DRIZZLE   68  59  73 S6        30.06R
REDWOOD FALLS  CLOUDY    68  64  87 SE14      29.93R
MANKATO        CLOUDY    67  63  87 SE13      30.01
WORTHINGTON    CLOUDY    68  64  87 S16       29.98R
FAIRMONT       MOSUNNY   67  64  90 S15G22    30.00F
$$

...SOUTHWEST WISCONSIN...


CITY           SKY/WX    TMP DP  RH WIND       PRES   REMARKS
LA CROSSE      MOSUNNY   68  60  75 S8        30.14R
PRAIRIE DU CHI MOSUNNY   63  60  88 E6        30.14S
BOSCOBEL       SUNNY     65  61  87 CALM      30.15F
LONE ROCK      NOT AVBL
PLATTEVILLE    SUNNY     61  61 100 SE5       30.17S
FORT MC COY    CLOUDY    64  59  84 S6        30.16S
MAUSTON-NEW LI SUNNY     61  58  90 CALM      30.16R
VIROQUA        FAIR      63  61  94 CALM      30.16R
WIS DELLS      SUNNY     61  58  88 S9        30.15F
$$

...ELSEWHERE IN WISCONSIN...


CITY           SKY/WX    TMP DP  RH WIND       PRES   REMARKS
MILWAUKEE      MOSUNNY   67  62  84 SE3       30.20R
MADISON        MOSUNNY   64  60  87 S8        30.17F
GREEN BAY      CLOUDY    60  55  83 S3        30.19S
EAU CLAIRE     NOT AVBL
BLACK RVR FLS  FAIR      62  62 100 CALM      30.15S
MEDFORD        CLOUDY    58  54  84 S5        30.18R
WAUSAU         MOSUNNY   60  52  74 S3        30.18R
WIS RAPIDS     CLOUDY    62  55  77 SW6       30.19R
MARSHFIELD     LGT RAIN  59  55  87 S5        30.18R
RICE LAKE      MOSUNNY   63  59  87 SE9       30.12R
$$

...NORTHEAST IOWA...


CITY           SKY/WX    TMP DP  RH WIND       PRES   REMARKS
WATERLOO       MOSUNNY   65  61  87 SE13      30.11
DUBUQUE        SUNNY     63  60  90 S9        30.17R
DECORAH        PTSUNNY   63  61  94 VRB7G14   30.12R
MASON CITY     SUNNY     65  62  90 S14       30.09S
CHARLES CITY   MOSUNNY   64  64 100 S13G20    30.11R
OELWEIN          N/A    N/A N/A N/A MISG        N/A
$$

...ELSEWHERE IN IOWA...


CITY           SKY/WX    TMP DP  RH WIND       PRES   REMARKS
DES MOINES     MOSUNNY   71  66  84 SE12      30.09R
IOWA CITY      SUNNY     66  62  87 SE7       30.16
FORT DODGE     MOSUNNY   70  63  78 S12       30.07S
MARSHALLTOWN   SUNNY     66  64  93 SE13      30.11R
CEDAR RAPIDS   SUNNY     65  65 100 SE7       30.14
$$

...NORTHERN ILLINOIS...


CITY           SKY/WX    TMP DP  RH WIND       PRES   REMARKS
CHICAGO-OHARE  MOSUNNY   70  60  70 SE12      30.19R
CHICAGO-MIDWAY MOSUNNY   70  59  68 SE9       30.19R
MOLINE         SUNNY     66  61  84 E5        30.15R
ROCKFORD       PTSUNNY   66  61  84 SE12      30.19S
PEORIA         SUNNY     68  62  81 E7        30.16R
$$

NOTE: "FAIR" INDICATES FEW OR NO CLOUDS BELOW 12,000 FEET WITH NO
SIGNIFICANT WEATHER AND/OR OBSTRUCTIONS TO VISIBILITY. WIND
SPEEDS ARE IN MILES-PER-HOUR.




USA.gov is the U.S. government's official web portal to all federal, state and local government web resources and services.